UAL433 KLAX-KSFO

Flight info

Callsign UAL433
Flight time 0h 57m
Altitude 38000
Route SUMMR2 STOKD SERFR SERFR4
Aircraft A319/M-SDE3GHIRWYZ/LB1

Departure

Time 2026-04-24 22:16
Airport Los Angeles International Airport (KLAX)

Arrival

Time 2026-04-24 23:13
Airport San Francisco International Airport (KSFO)
Time Latitude Longitude Altitude Speed Heading
2026-04-24 21:52 33.94205 -118.39776 95 ft 0 kts 83°
2026-04-24 22:03 33.94205 -118.39778 104 ft 2 kts 83°
2026-04-24 22:03 33.94202 -118.39806 95 ft 1 kts 83°
2026-04-24 22:03 33.94202 -118.39833 95 ft 4 kts 128°
2026-04-24 22:03 33.94213 -118.39843 96 ft 1 kts 173°
2026-04-24 22:04 33.94191 -118.39839 97 ft 4 kts 173°
2026-04-24 22:04 33.94165 -118.39836 97 ft 4 kts 173°
2026-04-24 22:04 33.94138 -118.39832 95 ft 4 kts 173°
2026-04-24 22:04 33.94111 -118.39828 98 ft 4 kts 173°
2026-04-24 22:05 33.94085 -118.39824 97 ft 2 kts 173°
2026-04-24 22:05 33.94063 -118.39826 96 ft 4 kts 189°
2026-04-24 22:05 33.94037 -118.39827 96 ft 2 kts 173°
2026-04-24 22:05 33.94035 -118.39827 97 ft 0 kts 173°
2026-04-24 22:08 33.94034 -118.39826 97 ft 1 kts 173°
2026-04-24 22:09 33.94023 -118.39825 98 ft 3 kts 174°
2026-04-24 22:09 33.93984 -118.39819 98 ft 8 kts 170°
2026-04-24 22:09 33.93928 -118.39793 101 ft 7 kts 144°
2026-04-24 22:09 33.93906 -118.39733 103 ft 9 kts 93°
2026-04-24 22:10 33.93915 -118.39637 103 ft 14 kts 83°
2026-04-24 22:10 33.93929 -118.39504 103 ft 17 kts 83°
2026-04-24 22:10 33.93945 -118.39349 101 ft 20 kts 82°
2026-04-24 22:10 33.93963 -118.39171 101 ft 22 kts 84°
2026-04-24 22:11 33.93983 -118.38978 101 ft 24 kts 83°
2026-04-24 22:11 33.94005 -118.38763 102 ft 27 kts 83°
2026-04-24 22:11 33.94028 -118.38533 103 ft 28 kts 83°
2026-04-24 22:11 33.94052 -118.38307 103 ft 23 kts 83°
2026-04-24 22:12 33.94057 -118.38250 103 ft 0 kts 83°
2026-04-24 22:12 33.94058 -118.38239 104 ft 6 kts 84°
2026-04-24 22:13 33.94066 -118.38157 103 ft 12 kts 83°
2026-04-24 22:13 33.94077 -118.38063 103 ft 8 kts 82°
2026-04-24 22:13 33.94073 -118.38015 103 ft 0 kts 117°
2026-04-24 22:14 33.94070 -118.38010 104 ft 3 kts 128°
2026-04-24 22:14 33.94046 -118.37999 106 ft 4 kts 170°
2026-04-24 22:15 33.94008 -118.37997 109 ft 7 kts 180°
2026-04-24 22:15 33.93981 -118.38044 110 ft 9 kts 270°
2026-04-24 22:15 33.93977 -118.38088 110 ft 3 kts 262°
2026-04-24 22:15 33.93954 -118.38305 110 ft 57 kts 263°
2026-04-24 22:16 33.93882 -118.39025 107 ft 116 kts 263°
2026-04-24 22:16 33.93765 -118.40192 286 ft 151 kts 261°
2026-04-24 22:16 33.93630 -118.41460 1030 ft 150 kts 260°
2026-04-24 22:16 33.93502 -118.42694 1810 ft 151 kts 260°
2026-04-24 22:17 33.93367 -118.44016 2352 ft 170 kts 261°
2026-04-24 22:17 33.93214 -118.45523 2763 ft 194 kts 261°
2026-04-24 22:17 33.93051 -118.47243 3254 ft 219 kts 263°
2026-04-24 22:17 33.92887 -118.49169 3848 ft 244 kts 264°
2026-04-24 22:18 33.92713 -118.51291 4629 ft 262 kts 264°
2026-04-24 22:18 33.92534 -118.53505 5681 ft 267 kts 264°
2026-04-24 22:18 33.92351 -118.55747 6757 ft 271 kts 265°
2026-04-24 22:18 33.92167 -118.58008 7834 ft 272 kts 264°
2026-04-24 22:19 33.91982 -118.60286 8914 ft 275 kts 264°
2026-04-24 22:19 33.91796 -118.62585 9947 ft 277 kts 265°
2026-04-24 22:19 33.91761 -118.64971 10573 ft 294 kts 269°
2026-04-24 22:19 33.91754 -118.67485 11241 ft 305 kts 269°
2026-04-24 22:20 33.91748 -118.70062 11809 ft 308 kts 269°
2026-04-24 22:20 33.91741 -118.72630 11961 ft 307 kts 269°
2026-04-24 22:20 33.91732 -118.75195 11994 ft 306 kts 269°
2026-04-24 22:20 33.91721 -118.77757 11996 ft 306 kts 269°
2026-04-24 22:21 33.91709 -118.80313 11996 ft 305 kts 269°
2026-04-24 22:21 33.91697 -118.82836 11994 ft 305 kts 269°
2026-04-24 22:21 33.91714 -118.85421 12362 ft 311 kts 271°
2026-04-24 22:21 33.91784 -118.88016 13342 ft 309 kts 271°
2026-04-24 22:22 33.91872 -118.90605 14239 ft 310 kts 271°
2026-04-24 22:22 33.91963 -118.93196 15055 ft 311 kts 271°
2026-04-24 22:22 33.92052 -118.95806 15865 ft 313 kts 271°
2026-04-24 22:22 33.92138 -118.98425 16671 ft 314 kts 271°
2026-04-24 22:23 33.92432 -119.01045 17452 ft 319 kts 282°
2026-04-24 22:23 33.93232 -119.03558 18240 ft 325 kts 294°
2026-04-24 22:23 33.94418 -119.05907 18921 ft 329 kts 297°
2026-04-24 22:23 33.95635 -119.08247 19618 ft 331 kts 297°
2026-04-24 22:24 33.96857 -119.10604 20300 ft 333 kts 297°
2026-04-24 22:24 33.98091 -119.12990 20972 ft 336 kts 297°
2026-04-24 22:24 33.99328 -119.15389 21641 ft 338 kts 297°
2026-04-24 22:24 34.00655 -119.17750 22285 ft 345 kts 304°
2026-04-24 22:25 34.02375 -119.19810 22934 ft 355 kts 315°
2026-04-24 22:25 34.04400 -119.21571 23581 ft 360 kts 318°
2026-04-24 22:25 34.06454 -119.23326 24111 ft 363 kts 317°
2026-04-24 22:25 34.08520 -119.25096 24634 ft 366 kts 317°
2026-04-24 22:26 34.10602 -119.26888 25129 ft 369 kts 317°
2026-04-24 22:26 34.12702 -119.28694 25627 ft 372 kts 317°
2026-04-24 22:26 34.14827 -119.30522 26118 ft 375 kts 317°
2026-04-24 22:26 34.16962 -119.32361 26610 ft 379 kts 317°
2026-04-24 22:27 34.19116 -119.34221 27080 ft 382 kts 317°
2026-04-24 22:27 34.21256 -119.36071 27548 ft 385 kts 317°
2026-04-24 22:27 34.23445 -119.37961 28021 ft 388 kts 317°
2026-04-24 22:27 34.25648 -119.39862 28483 ft 391 kts 317°
2026-04-24 22:28 34.27874 -119.41787 28950 ft 394 kts 317°
2026-04-24 22:28 34.30114 -119.43724 29400 ft 398 kts 317°
2026-04-24 22:28 34.32374 -119.45680 29859 ft 401 kts 317°
2026-04-24 22:28 34.34656 -119.47655 30272 ft 404 kts 316°
2026-04-24 22:29 34.39255 -119.51648 31059 ft 409 kts 316°
2026-04-24 22:29 34.41491 -119.53762 31457 ft 405 kts 310°
2026-04-24 22:29 34.43480 -119.56160 31848 ft 404 kts 307°
2026-04-24 22:30 34.45459 -119.58599 32245 ft 406 kts 307°
2026-04-24 22:30 34.47445 -119.61043 32674 ft 407 kts 307°
2026-04-24 22:30 34.49429 -119.63480 33246 ft 404 kts 307°
2026-04-24 22:30 34.51401 -119.65901 33798 ft 402 kts 306°
2026-04-24 22:31 34.53354 -119.68302 34313 ft 401 kts 306°
2026-04-24 22:31 34.55309 -119.70705 34790 ft 399 kts 306°
2026-04-24 22:31 34.57233 -119.73074 35231 ft 397 kts 306°
2026-04-24 22:31 34.59163 -119.75454 35694 ft 395 kts 306°
2026-04-24 22:32 34.61087 -119.77830 36143 ft 393 kts 307°
2026-04-24 22:32 34.62995 -119.80190 36558 ft 392 kts 306°
2026-04-24 22:32 34.64907 -119.82557 36952 ft 391 kts 306°
2026-04-24 22:32 34.66814 -119.84920 37356 ft 391 kts 306°
2026-04-24 22:33 34.68714 -119.87277 37747 ft 390 kts 306°
2026-04-24 22:33 34.70613 -119.89638 37946 ft 389 kts 306°
2026-04-24 22:33 34.74366 -119.94293 37963 ft 384 kts 306°
2026-04-24 22:34 34.78107 -119.98927 37969 ft 383 kts 306°
2026-04-24 22:34 34.81839 -120.03578 37966 ft 383 kts 306°
2026-04-24 22:35 34.85554 -120.08207 37970 ft 383 kts 306°
2026-04-24 22:35 34.89284 -120.12865 37986 ft 383 kts 306°
2026-04-24 22:36 34.92998 -120.17505 37992 ft 383 kts 306°
2026-04-24 22:36 34.96714 -120.22155 37996 ft 383 kts 306°
2026-04-24 22:37 35.00439 -120.26817 38001 ft 384 kts 307°
2026-04-24 22:37 35.04162 -120.31495 38003 ft 384 kts 307°
2026-04-24 22:38 35.07889 -120.36180 38000 ft 384 kts 306°
2026-04-24 22:38 35.11717 -120.40768 38000 ft 387 kts 309°
2026-04-24 22:39 35.15725 -120.45180 37994 ft 388 kts 310°
2026-04-24 22:39 35.19753 -120.49587 37994 ft 388 kts 310°
2026-04-24 22:40 35.23738 -120.54031 37991 ft 388 kts 309°
2026-04-24 22:40 35.27709 -120.58505 37996 ft 389 kts 309°
2026-04-24 22:41 35.31665 -120.62970 37990 ft 389 kts 309°
2026-04-24 22:41 35.35002 -120.66732 37991 ft 389 kts 310°
2026-04-24 22:42 35.39642 -120.71966 37991 ft 390 kts 310°
2026-04-24 22:42 35.43625 -120.76471 37984 ft 390 kts 310°
2026-04-24 22:43 35.47608 -120.80977 37989 ft 391 kts 310°
2026-04-24 22:43 35.51929 -120.85143 37996 ft 396 kts 315°
2026-04-24 22:44 35.56322 -120.89215 37994 ft 396 kts 315°
2026-04-24 22:44 35.60716 -120.93290 37994 ft 395 kts 315°
2026-04-24 22:45 35.65101 -120.97362 37996 ft 396 kts 315°
2026-04-24 22:45 35.69470 -121.01429 37995 ft 396 kts 315°
2026-04-24 22:46 35.73867 -121.05537 37994 ft 396 kts 315°
2026-04-24 22:46 35.78284 -121.09657 37764 ft 404 kts 315°
2026-04-24 22:47 35.80513 -121.11734 37427 ft 401 kts 315°
2026-04-24 22:47 35.82731 -121.13802 37051 ft 398 kts 315°
2026-04-24 22:47 35.84930 -121.15857 36665 ft 395 kts 315°
2026-04-24 22:47 35.87111 -121.17898 36267 ft 392 kts 315°
2026-04-24 22:48 35.89273 -121.19927 35865 ft 388 kts 315°
2026-04-24 22:48 35.91407 -121.21938 35477 ft 385 kts 315°
2026-04-24 22:48 35.93533 -121.23940 35077 ft 382 kts 315°
2026-04-24 22:48 35.95640 -121.25918 34677 ft 380 kts 315°
2026-04-24 22:49 35.97732 -121.27887 34268 ft 377 kts 315°
2026-04-24 22:49 35.99813 -121.29847 33826 ft 375 kts 315°
2026-04-24 22:49 36.01887 -121.31795 33393 ft 372 kts 315°
2026-04-24 22:49 36.03937 -121.33724 32978 ft 369 kts 315°
2026-04-24 22:50 36.05283 -121.34992 32695 ft 367 kts 315°
2026-04-24 22:50 36.07373 -121.36876 32254 ft 368 kts 320°
2026-04-24 22:50 36.09538 -121.38557 31833 ft 367 kts 321°
2026-04-24 22:50 36.11659 -121.40208 31423 ft 365 kts 321°
2026-04-24 22:51 36.13804 -121.41880 30995 ft 364 kts 321°
2026-04-24 22:51 36.15942 -121.43551 30579 ft 362 kts 321°
2026-04-24 22:51 36.18068 -121.45211 30177 ft 360 kts 322°
2026-04-24 22:51 36.20180 -121.46864 29742 ft 358 kts 322°
2026-04-24 22:52 36.22274 -121.48506 29360 ft 355 kts 321°
2026-04-24 22:52 36.24358 -121.50141 28966 ft 352 kts 322°
2026-04-24 22:52 36.26420 -121.51757 28606 ft 349 kts 322°
2026-04-24 22:52 36.28461 -121.53350 28252 ft 345 kts 322°
2026-04-24 22:53 36.30485 -121.54929 27893 ft 342 kts 322°
2026-04-24 22:53 36.32486 -121.56496 27515 ft 339 kts 322°
2026-04-24 22:53 36.34472 -121.58057 27160 ft 335 kts 322°
2026-04-24 22:53 36.36434 -121.59599 26790 ft 332 kts 322°
2026-04-24 22:54 36.38376 -121.61119 26425 ft 329 kts 322°
2026-04-24 22:54 36.40303 -121.62631 26061 ft 327 kts 322°
2026-04-24 22:54 36.42217 -121.64137 25689 ft 325 kts 323°
2026-04-24 22:54 36.44120 -121.65637 25310 ft 323 kts 323°
2026-04-24 22:55 36.46008 -121.67130 24932 ft 321 kts 323°
2026-04-24 22:55 36.47894 -121.68618 24538 ft 321 kts 323°
2026-04-24 22:55 36.49776 -121.70105 24153 ft 320 kts 323°
2026-04-24 22:55 36.51657 -121.71589 23768 ft 320 kts 323°
2026-04-24 22:56 36.53533 -121.73065 23333 ft 319 kts 324°
2026-04-24 22:56 36.55400 -121.74538 22929 ft 316 kts 324°
2026-04-24 22:56 36.57254 -121.76002 22544 ft 314 kts 324°
2026-04-24 22:56 36.59092 -121.77457 22159 ft 312 kts 324°
2026-04-24 22:57 36.60917 -121.78904 21781 ft 310 kts 324°
2026-04-24 22:57 36.62734 -121.80346 21403 ft 309 kts 325°
2026-04-24 22:57 36.64540 -121.81779 21021 ft 308 kts 325°
2026-04-24 22:57 36.66342 -121.83212 20648 ft 307 kts 325°
2026-04-24 22:58 36.68136 -121.84639 20271 ft 306 kts 325°
2026-04-24 22:58 36.69927 -121.86061 19903 ft 305 kts 326°
2026-04-24 22:58 36.71719 -121.87481 19533 ft 304 kts 326°
2026-04-24 22:58 36.73545 -121.88803 19162 ft 305 kts 333°
2026-04-24 22:59 36.75535 -121.89775 18782 ft 314 kts 342°
2026-04-24 22:59 36.77665 -121.90407 18372 ft 321 kts 346°
2026-04-24 22:59 36.82020 -121.91611 17482 ft 320 kts 346°
2026-04-24 23:00 36.84185 -121.92217 17069 ft 318 kts 347°
2026-04-24 23:00 36.86339 -121.92820 16656 ft 316 kts 347°
2026-04-24 23:00 36.88483 -121.93419 16252 ft 314 kts 347°
2026-04-24 23:00 36.90611 -121.94014 15850 ft 312 kts 347°
2026-04-24 23:01 36.92716 -121.94603 15450 ft 310 kts 347°
2026-04-24 23:01 36.94816 -121.95187 15042 ft 308 kts 347°
2026-04-24 23:01 36.96889 -121.95858 14629 ft 307 kts 344°
2026-04-24 23:01 36.98931 -121.96632 14196 ft 307 kts 342°
2026-04-24 23:02 37.00961 -121.97456 13807 ft 305 kts 342°
2026-04-24 23:02 37.02969 -121.98285 13543 ft 302 kts 342°
2026-04-24 23:02 37.04958 -121.99098 12903 ft 299 kts 342°
2026-04-24 23:02 37.06926 -121.99886 12474 ft 296 kts 343°
2026-04-24 23:03 37.08876 -122.00655 12054 ft 293 kts 343°
2026-04-24 23:03 37.10813 -122.01413 11651 ft 289 kts 343°
2026-04-24 23:03 37.12725 -122.02160 11228 ft 287 kts 343°
2026-04-24 23:03 37.14623 -122.02900 10819 ft 285 kts 343°
2026-04-24 23:04 37.16502 -122.03631 10428 ft 282 kts 343°
2026-04-24 23:04 37.18379 -122.04362 10036 ft 281 kts 343°
2026-04-24 23:04 37.20226 -122.05083 9733 ft 272 kts 343°
2026-04-24 23:04 37.21997 -122.05777 9268 ft 270 kts 343°
2026-04-24 23:05 37.23799 -122.06484 8858 ft 266 kts 343°
2026-04-24 23:05 37.25538 -122.07166 8486 ft 265 kts 343°
2026-04-24 23:05 37.27303 -122.07856 8121 ft 265 kts 343°
2026-04-24 23:05 37.29064 -122.08548 7750 ft 266 kts 343°
2026-04-24 23:06 37.30827 -122.09246 7381 ft 266 kts 343°
2026-04-24 23:06 37.32598 -122.09946 7040 ft 266 kts 343°
2026-04-24 23:06 37.34369 -122.10646 6704 ft 265 kts 343°
2026-04-24 23:06 37.36139 -122.11346 6354 ft 266 kts 342°
2026-04-24 23:07 37.37897 -122.12037 5971 ft 265 kts 343°
2026-04-24 23:07 37.39652 -122.12672 5589 ft 258 kts 345°
2026-04-24 23:07 37.41355 -122.13252 5270 ft 248 kts 345°
2026-04-24 23:07 37.42985 -122.13799 4981 ft 238 kts 345°
2026-04-24 23:08 37.44584 -122.14335 4689 ft 237 kts 345°
2026-04-24 23:08 37.46164 -122.14864 4405 ft 234 kts 345°
2026-04-24 23:08 37.47737 -122.15381 4117 ft 232 kts 345°
2026-04-24 23:08 37.49292 -122.15887 3837 ft 230 kts 345°
2026-04-24 23:09 37.50827 -122.16386 3557 ft 227 kts 345°
2026-04-24 23:09 37.52350 -122.16895 3299 ft 225 kts 341°
2026-04-24 23:09 37.53661 -122.17878 3069 ft 218 kts 314°
2026-04-24 23:09 37.54499 -122.19431 2812 ft 214 kts 296°
2026-04-24 23:10 37.55187 -122.21070 2544 ft 210 kts 296°
2026-04-24 23:10 37.55863 -122.22673 2271 ft 203 kts 297°
2026-04-24 23:10 37.56518 -122.24224 1999 ft 199 kts 296°
2026-04-24 23:10 37.57161 -122.25752 1719 ft 195 kts 296°
2026-04-24 23:11 37.57791 -122.27247 1457 ft 190 kts 296°
2026-04-24 23:11 37.58391 -122.28670 1239 ft 176 kts 296°
2026-04-24 23:11 37.58941 -122.29976 1002 ft 160 kts 297°
2026-04-24 23:11 37.59433 -122.31146 813 ft 143 kts 296°
2026-04-24 23:12 37.59875 -122.32194 658 ft 129 kts 294°
2026-04-24 23:12 37.60277 -122.33150 535 ft 122 kts 293°
2026-04-24 23:12 37.60670 -122.34089 384 ft 120 kts 292°
2026-04-24 23:12 37.61067 -122.35026 220 ft 120 kts 292°
2026-04-24 23:13 37.61450 -122.35947 51 ft 120 kts 292°
2026-04-24 23:13 37.61799 -122.36788 26 ft 95 kts 296°
2026-04-24 23:13 37.62041 -122.37385 25 ft 52 kts 300°
2026-04-24 23:13 37.62159 -122.37646 22 ft 30 kts 297°
2026-04-24 23:14 37.62234 -122.37910 22 ft 31 kts 276°
2026-04-24 23:14 37.62225 -122.38125 22 ft 14 kts 262°
2026-04-24 23:14 37.62159 -122.38214 22 ft 16 kts 206°
2026-04-24 23:14 37.62081 -122.38274 24 ft 6 kts 238°
2026-04-24 23:15 37.62097 -122.38343 22 ft 11 kts 293°
2026-04-24 23:15 37.62064 -122.38429 24 ft 12 kts 253°
2026-04-24 23:15 37.62037 -122.38519 25 ft 11 kts 211°
2026-04-24 23:15 37.61971 -122.38558 22 ft 6 kts 199°
2026-04-24 23:16 37.61940 -122.38521 25 ft 6 kts 115°
2026-04-24 23:16 37.61928 -122.38492 22 ft 1 kts 118°